����������;��������(kVARh)
2016-05-30 00:00;0,1
2016-05-30 00:15;0
2016-05-30 00:30;0
2016-05-30 00:45;0
2016-05-30 01:00;0
2016-05-30 01:15;0,05
2016-05-30 01:30;0
2016-05-30 01:45;0
2016-05-30 02:00;0
2016-05-30 02:15;0
2016-05-30 02:30;0
2016-05-30 02:45;0
2016-05-30 03:00;0
2016-05-30 03:15;0
2016-05-30 03:30;0
2016-05-30 03:45;0
2016-05-30 04:00;0
2016-05-30 04:15;0
2016-05-30 04:30;0
2016-05-30 04:45;0
2016-05-30 05:00;0
2016-05-30 05:15;0
2016-05-30 05:30;0
2016-05-30 05:45;0
2016-05-30 06:00;0
2016-05-30 06:15;0
2016-05-30 06:30;0
2016-05-30 06:45;0
2016-05-30 07:00;0
2016-05-30 07:15;0
2016-05-30 07:30;0,15
2016-05-30 07:45;3,2
2016-05-30 08:00;0,55
2016-05-30 08:15;0,8
2016-05-30 08:30;3,8
2016-05-30 08:45;5,25
2016-05-30 09:00;18,9
2016-05-30 09:15;14,2
2016-05-30 09:30;16,6
2016-05-30 09:45;30,6
2016-05-30 10:00;31,55
2016-05-30 10:15;36,65
2016-05-30 10:30;39
2016-05-30 10:45;31,1
2016-05-30 11:00;39,3
2016-05-30 11:15;37,45
2016-05-30 11:30;28,8
2016-05-30 11:45;33,25
2016-05-30 12:00;24,4
2016-05-30 12:15;27,2
2016-05-30 12:30;28,45
2016-05-30 12:45;21,3
2016-05-30 13:00;27,5
2016-05-30 13:15;34,7
2016-05-30 13:30;27,25
2016-05-30 13:45;33,55
2016-05-30 14:00;28,65
2016-05-30 14:15;24,75
2016-05-30 14:30;32,15
2016-05-30 14:45;36,25
2016-05-30 15:00;38,55
2016-05-30 15:15;38,85
2016-05-30 15:30;33,95
2016-05-30 15:45;31,1
2016-05-30 16:00;30,3
2016-05-30 16:15;23,9
2016-05-30 16:30;22,2
2016-05-30 16:45;25,45
2016-05-30 17:00;21,05
2016-05-30 17:15;18,65
2016-05-30 17:30;19,35
2016-05-30 17:45;4,2
2016-05-30 18:00;20,55
2016-05-30 18:15;11,85
2016-05-30 18:30;9,55
2016-05-30 18:45;10,4
2016-05-30 19:00;21,65
2016-05-30 19:15;3,85
2016-05-30 19:30;5,85
2016-05-30 19:45;5,45
2016-05-30 20:00;3,6
2016-05-30 20:15;0,05
2016-05-30 20:30;0
2016-05-30 20:45;0,6
2016-05-30 21:00;0
2016-05-30 21:15;0,25
2016-05-30 21:30;0
2016-05-30 21:45;0
2016-05-30 22:00;0
2016-05-30 22:15;0,05
2016-05-30 22:30;0
2016-05-30 22:45;0
2016-05-30 23:00;0
2016-05-30 23:15;0
2016-05-30 23:30;0
2016-05-30 23:45;0,1
2016-05-31 00:00;0
2016-05-31 00:15;0
2016-05-31 00:30;0
2016-05-31 00:45;0
2016-05-31 01:00;0
2016-05-31 01:15;0
2016-05-31 01:30;0
2016-05-31 01:45;0
2016-05-31 02:00;0
2016-05-31 02:15;0
2016-05-31 02:30;0
2016-05-31 02:45;0
2016-05-31 03:00;0
2016-05-31 03:15;0
2016-05-31 03:30;0
2016-05-31 03:45;0
2016-05-31 04:00;0
2016-05-31 04:15;0
2016-05-31 04:30;0
2016-05-31 04:45;0
2016-05-31 05:00;0
2016-05-31 05:15;0
2016-05-31 05:30;0
2016-05-31 05:45;0
2016-05-31 06:00;0
2016-05-31 06:15;0
2016-05-31 06:30;0
2016-05-31 06:45;0
2016-05-31 07:00;0
2016-05-31 07:15;0,4
2016-05-31 07:30;0,05
2016-05-31 07:45;15,35
2016-05-31 08:00;8,7
2016-05-31 08:15;0,75
2016-05-31 08:30;9,35
2016-05-31 08:45;10,35
2016-05-31 09:00;3,85
2016-05-31 09:15;4,4
2016-05-31 09:30;3,95
2016-05-31 09:45;15,2
2016-05-31 10:00;9,75
2016-05-31 10:15;17,35
2016-05-31 10:30;12,85
2016-05-31 10:45;24
2016-05-31 11:00;24,45
2016-05-31 11:15;25,55
2016-05-31 11:30;28,5
2016-05-31 11:45;40,35
2016-05-31 12:00;40,25
2016-05-31 12:15;42,65
2016-05-31 12:30;36,55
2016-05-31 12:45;42,15
2016-05-31 13:00;45,05
2016-05-31 13:15;38,9
2016-05-31 13:30;37,95
2016-05-31 13:45;40,05
2016-05-31 14:00;39,6
2016-05-31 14:15;39,45
2016-05-31 14:30;40,05
2016-05-31 14:45;45,25
2016-05-31 15:00;36,4
2016-05-31 15:15;29,05
2016-05-31 15:30;30,05
2016-05-31 15:45;29,45
2016-05-31 16:00;21,7
2016-05-31 16:15;29,6
2016-05-31 16:30;20,55
2016-05-31 16:45;24,9
2016-05-31 17:00;17,55
2016-05-31 17:15;8,8
2016-05-31 17:30;9,5
2016-05-31 17:45;10,4
2016-05-31 18:00;12,2
2016-05-31 18:15;5,3
2016-05-31 18:30;5,85
2016-05-31 18:45;2,15
2016-05-31 19:00;2,95
2016-05-31 19:15;0,65
2016-05-31 19:30;0,05
2016-05-31 19:45;0,2
2016-05-31 20:00;0,1
2016-05-31 20:15;0
2016-05-31 20:30;0
2016-05-31 20:45;0,05
2016-05-31 21:00;0
2016-05-31 21:15;0
2016-05-31 21:30;0
2016-05-31 21:45;0,1
2016-05-31 22:00;3,6
2016-05-31 22:15;7,6
2016-05-31 22:30;7,9
2016-05-31 22:45;4,25
2016-05-31 23:00;3,55
2016-05-31 23:15;0,2
2016-05-31 23:30;0,9
2016-05-31 23:45;1,1
2016-06-01 00:00;0
2016-06-01 00:15;0
2016-06-01 00:30;0,1
2016-06-01 00:45;0
2016-06-01 01:00;0
2016-06-01 01:15;0
2016-06-01 01:30;0
2016-06-01 01:45;0,15
2016-06-01 02:00;0
2016-06-01 02:15;0,05
2016-06-01 02:30;0
2016-06-01 02:45;0,25
2016-06-01 03:00;0
2016-06-01 03:15;0,05
2016-06-01 03:30;0
2016-06-01 03:45;0
2016-06-01 04:00;0
2016-06-01 04:15;0
2016-06-01 04:30;0,1
2016-06-01 04:45;0
2016-06-01 05:00;0,2
2016-06-01 05:15;0
2016-06-01 05:30;0
2016-06-01 05:45;0
2016-06-01 06:00;7,9
2016-06-01 06:15;12,1
2016-06-01 06:30;10,5
2016-06-01 06:45;11,9
2016-06-01 07:00;13,6
2016-06-01 07:15;13,75
2016-06-01 07:30;12,15
2016-06-01 07:45;13,3
2016-06-01 08:00;11,9
2016-06-01 08:15;10,45
2016-06-01 08:30;21,75
2016-06-01 08:45;18,3
2016-06-01 09:00;18,65
2016-06-01 09:15;22,65
2016-06-01 09:30;31,6
2016-06-01 09:45;33,55
2016-06-01 10:00;28,75
2016-06-01 10:15;32
2016-06-01 10:30;33,7
2016-06-01 10:45;44,5
2016-06-01 11:00;48,1
2016-06-01 11:15;49,5
2016-06-01 11:30;63,3
2016-06-01 11:45;79,45
2016-06-01 12:00;72,2
2016-06-01 12:15;62,15
2016-06-01 12:30;64,5
2016-06-01 12:45;66,55
2016-06-01 13:00;68,55
2016-06-01 13:15;70,2
2016-06-01 13:30;64,9
2016-06-01 13:45;62,95
2016-06-01 14:00;60,05
2016-06-01 14:15;61,15
2016-06-01 14:30;62
2016-06-01 14:45;62,7
2016-06-01 15:00;63,55
2016-06-01 15:15;64,6
2016-06-01 15:30;56,65
2016-06-01 15:45;57,75
2016-06-01 16:00;50,15
2016-06-01 16:15;48,05
2016-06-01 16:30;48,6
2016-06-01 16:45;49,55
2016-06-01 17:00;44,3
2016-06-01 17:15;41,25
2016-06-01 17:30;49,2
2016-06-01 17:45;44,7
2016-06-01 18:00;33,4
2016-06-01 18:15;26,35
2016-06-01 18:30;24,05
2016-06-01 18:45;24,65
2016-06-01 19:00;25,4
2016-06-01 19:15;21
2016-06-01 19:30;17,3
2016-06-01 19:45;14,95
2016-06-01 20:00;12
2016-06-01 20:15;6,9
2016-06-01 20:30;6,35
2016-06-01 20:45;5,2
2016-06-01 21:00;9,25
2016-06-01 21:15;6,5
2016-06-01 21:30;7,8
2016-06-01 21:45;7,6
2016-06-01 22:00;9,55
2016-06-01 22:15;9,2
2016-06-01 22:30;10,65
2016-06-01 22:45;10,25
2016-06-01 23:00;6,8
2016-06-01 23:15;5,6
2016-06-01 23:30;4,85
2016-06-01 23:45;4,6
2016-06-02 00:00;1,4
2016-06-02 00:15;0
2016-06-02 00:30;0
2016-06-02 00:45;0
2016-06-02 01:00;0
2016-06-02 01:15;0,2
2016-06-02 01:30;0
2016-06-02 01:45;0
2016-06-02 02:00;0
2016-06-02 02:15;0
2016-06-02 02:30;0,35
2016-06-02 02:45;0,05
2016-06-02 03:00;0,6
2016-06-02 03:15;0
2016-06-02 03:30;0
2016-06-02 03:45;0,9
2016-06-02 04:00;0,1
2016-06-02 04:15;0
2016-06-02 04:30;0
2016-06-02 04:45;0
2016-06-02 05:00;0,05
2016-06-02 05:15;1,05
2016-06-02 05:30;0,45
2016-06-02 05:45;10,6
2016-06-02 06:00;19,05
2016-06-02 06:15;34,45
2016-06-02 06:30;39,8
2016-06-02 06:45;30,8
2016-06-02 07:00;27,95
2016-06-02 07:15;29,15
2016-06-02 07:30;37,55
2016-06-02 07:45;47,45
2016-06-02 08:00;36,25
2016-06-02 08:15;31,9
2016-06-02 08:30;37
2016-06-02 08:45;37,8
2016-06-02 09:00;27,9
2016-06-02 09:15;30,8
2016-06-02 09:30;35,15
2016-06-02 09:45;32,55
2016-06-02 10:00;35,3
2016-06-02 10:15;36,7
2016-06-02 10:30;35,3
2016-06-02 10:45;42,2
2016-06-02 11:00;47
2016-06-02 11:15;44,7
2016-06-02 11:30;42,4
2016-06-02 11:45;38,5
2016-06-02 12:00;51,2
2016-06-02 12:15;47,6
2016-06-02 12:30;47,25
2016-06-02 12:45;44,85
2016-06-02 13:00;47,15
2016-06-02 13:15;50,65
2016-06-02 13:30;49,85
2016-06-02 13:45;47,5
2016-06-02 14:00;54,45
2016-06-02 14:15;56,6
2016-06-02 14:30;54,4
2016-06-02 14:45;55,2
2016-06-02 15:00;56,2
2016-06-02 15:15;55,3
2016-06-02 15:30;50,9
2016-06-02 15:45;43,05
2016-06-02 16:00;38,6
2016-06-02 16:15;40,05
2016-06-02 16:30;35,75
2016-06-02 16:45;35,75
2016-06-02 17:00;30,15
2016-06-02 17:15;25,65
2016-06-02 17:30;30,8
2016-06-02 17:45;30,9
2016-06-02 18:00;29,6
2016-06-02 18:15;25,55
2016-06-02 18:30;20,25
2016-06-02 18:45;22,8
2016-06-02 19:00;18,45
2016-06-02 19:15;15,75
2016-06-02 19:30;15,5
2016-06-02 19:45;10,3
2016-06-02 20:00;6,4
2016-06-02 20:15;3,7
2016-06-02 20:30;2,6
2016-06-02 20:45;2,1
2016-06-02 21:00;1,3
2016-06-02 21:15;0,75
2016-06-02 21:30;3,8
2016-06-02 21:45;6,1
2016-06-02 22:00;4,6
2016-06-02 22:15;4,45
2016-06-02 22:30;0,2
2016-06-02 22:45;0,4
2016-06-02 23:00;4,1
2016-06-02 23:15;2,95
2016-06-02 23:30;2,95
2016-06-02 23:45;3,35
2016-06-03 00:00;0
2016-06-03 00:15;0
2016-06-03 00:30;0
2016-06-03 00:45;0
2016-06-03 01:00;0
2016-06-03 01:15;0
2016-06-03 01:30;0
2016-06-03 01:45;0
2016-06-03 02:00;0
2016-06-03 02:15;0
2016-06-03 02:30;0
2016-06-03 02:45;0
2016-06-03 03:00;0
2016-06-03 03:15;0
2016-06-03 03:30;0
2016-06-03 03:45;0
2016-06-03 04:00;0
2016-06-03 04:15;0
2016-06-03 04:30;0
2016-06-03 04:45;0
2016-06-03 05:00;0
2016-06-03 05:15;0
2016-06-03 05:30;0
2016-06-03 05:45;0,05
2016-06-03 06:00;0
2016-06-03 06:15;1,1
2016-06-03 06:30;11,35
2016-06-03 06:45;20,05
2016-06-03 07:00;11,75
2016-06-03 07:15;10,8
2016-06-03 07:30;11,05
2016-06-03 07:45;28,05
2016-06-03 08:00;24,6
2016-06-03 08:15;17,25
2016-06-03 08:30;29,9
2016-06-03 08:45;33,9
2016-06-03 09:00;26,75
2016-06-03 09:15;34,35
2016-06-03 09:30;37,35
2016-06-03 09:45;32,25
2016-06-03 10:00;35,55
2016-06-03 10:15;41,3
2016-06-03 10:30;35,7
2016-06-03 10:45;39,4
2016-06-03 11:00;39,5
2016-06-03 11:15;38,95
2016-06-03 11:30;48,35
2016-06-03 11:45;49,35
2016-06-03 12:00;46,3
2016-06-03 12:15;45,85
2016-06-03 12:30;45,9
2016-06-03 12:45;47,9
2016-06-03 13:00;46,75
2016-06-03 13:15;48,55
2016-06-03 13:30;50,3
2016-06-03 13:45;51,05
2016-06-03 14:00;48,5
2016-06-03 14:15;44,95
2016-06-03 14:30;49,9
2016-06-03 14:45;51,85
2016-06-03 15:00;49,5
2016-06-03 15:15;47,1
2016-06-03 15:30;47,85
2016-06-03 15:45;46,35
2016-06-03 16:00;47,7
2016-06-03 16:15;42,75
2016-06-03 16:30;44,95
2016-06-03 16:45;46,65
2016-06-03 17:00;44,15
2016-06-03 17:15;40,2
2016-06-03 17:30;39,7
2016-06-03 17:45;38,95
2016-06-03 18:00;40,7
2016-06-03 18:15;37,9
2016-06-03 18:30;29,35
2016-06-03 18:45;35,5
2016-06-03 19:00;34,85
2016-06-03 19:15;23,3
2016-06-03 19:30;13,65
2016-06-03 19:45;11,65
2016-06-03 20:00;11,65
2016-06-03 20:15;9,1
2016-06-03 20:30;6,7
2016-06-03 20:45;5
2016-06-03 21:00;6,55
2016-06-03 21:15;7,45
2016-06-03 21:30;8,75
2016-06-03 21:45;8,65
2016-06-03 22:00;5,95
2016-06-03 22:15;7,45
2016-06-03 22:30;9,8
2016-06-03 22:45;9,3
2016-06-03 23:00;10,9
2016-06-03 23:15;8,15
2016-06-03 23:30;11,6
2016-06-03 23:45;12,8
2016-06-04 00:00;14,2
2016-06-04 00:15;14,65
2016-06-04 00:30;13,2
2016-06-04 00:45;4,15
2016-06-04 01:00;0,15
2016-06-04 01:15;0
2016-06-04 01:30;0
2016-06-04 01:45;0
2016-06-04 02:00;0
2016-06-04 02:15;0
2016-06-04 02:30;0
2016-06-04 02:45;0
2016-06-04 03:00;0
2016-06-04 03:15;0
2016-06-04 03:30;0
2016-06-04 03:45;0
2016-06-04 04:00;0,15
2016-06-04 04:15;0
2016-06-04 04:30;0
2016-06-04 04:45;0
2016-06-04 05:00;0,25
2016-06-04 05:15;0
2016-06-04 05:30;0
2016-06-04 05:45;1
2016-06-04 06:00;1,25
2016-06-04 06:15;2,45
2016-06-04 06:30;0
2016-06-04 06:45;0
2016-06-04 07:00;0
2016-06-04 07:15;0
2016-06-04 07:30;0
2016-06-04 07:45;0
2016-06-04 08:00;0
2016-06-04 08:15;0
2016-06-04 08:30;0
2016-06-04 08:45;0
2016-06-04 09:00;0
2016-06-04 09:15;0
2016-06-04 09:30;0
2016-06-04 09:45;0
2016-06-04 10:00;0
2016-06-04 10:15;0
2016-06-04 10:30;0
2016-06-04 10:45;1,05
2016-06-04 11:00;0,25
2016-06-04 11:15;0,1
2016-06-04 11:30;2,85
2016-06-04 11:45;2,3
2016-06-04 12:00;8,95
2016-06-04 12:15;9,3
2016-06-04 12:30;11,15
2016-06-04 12:45;2,65
2016-06-04 13:00;0
2016-06-04 13:15;2,2
2016-06-04 13:30;0
2016-06-04 13:45;0,7
2016-06-04 14:00;1
2016-06-04 14:15;0,05
2016-06-04 14:30;0,85
2016-06-04 14:45;1
2016-06-04 15:00;0
2016-06-04 15:15;2,75
2016-06-04 15:30;1,85
2016-06-04 15:45;0,4
2016-06-04 16:00;2,05
2016-06-04 16:15;0,2
2016-06-04 16:30;6,6
2016-06-04 16:45;0,05
2016-06-04 17:00;2,8
2016-06-04 17:15;3,05
2016-06-04 17:30;6,9
2016-06-04 17:45;2,95
2016-06-04 18:00;1,55
2016-06-04 18:15;8,05
2016-06-04 18:30;2,75
2016-06-04 18:45;4,5
2016-06-04 19:00;0,45
2016-06-04 19:15;4,9
2016-06-04 19:30;0,6
2016-06-04 19:45;5,8
2016-06-04 20:00;1,75
2016-06-04 20:15;6,75
2016-06-04 20:30;0,85
2016-06-04 20:45;3,55
2016-06-04 21:00;0
2016-06-04 21:15;4,9
2016-06-04 21:30;0,25
2016-06-04 21:45;4,5
2016-06-04 22:00;0
2016-06-04 22:15;2,05
2016-06-04 22:30;0
2016-06-04 22:45;2,8
2016-06-04 23:00;0
2016-06-04 23:15;2,1
2016-06-04 23:30;0
2016-06-04 23:45;3,75
2016-06-05 00:00;0
2016-06-05 00:15;3,85
2016-06-05 00:30;0
2016-06-05 00:45;6,85
2016-06-05 01:00;0
2016-06-05 01:15;3,75
2016-06-05 01:30;0,1
2016-06-05 01:45;6,15
2016-06-05 02:00;1,05
2016-06-05 02:15;5,8
2016-06-05 02:30;0,8
2016-06-05 02:45;9,1
2016-06-05 03:00;14
2016-06-05 03:15;2,45
2016-06-05 03:30;0,05
2016-06-05 03:45;0
2016-06-05 04:00;0
2016-06-05 04:15;0
2016-06-05 04:30;0
2016-06-05 04:45;0
2016-06-05 05:00;0
2016-06-05 05:15;0
2016-06-05 05:30;0
2016-06-05 05:45;0
2016-06-05 06:00;0
2016-06-05 06:15;0
2016-06-05 06:30;0
2016-06-05 06:45;0
2016-06-05 07:00;0
2016-06-05 07:15;0
2016-06-05 07:30;0
2016-06-05 07:45;0
2016-06-05 08:00;0
2016-06-05 08:15;0
2016-06-05 08:30;0
2016-06-05 08:45;0
2016-06-05 09:00;0
2016-06-05 09:15;0
2016-06-05 09:30;0
2016-06-05 09:45;0
2016-06-05 10:00;0,05
2016-06-05 10:15;0
2016-06-05 10:30;0
2016-06-05 10:45;0
2016-06-05 11:00;0,3
2016-06-05 11:15;0,35
2016-06-05 11:30;0,3
2016-06-05 11:45;0,4
2016-06-05 12:00;0,7
2016-06-05 12:15;0,1
2016-06-05 12:30;0,1
2016-06-05 12:45;0,05
2016-06-05 13:00;0
2016-06-05 13:15;0
2016-06-05 13:30;0
2016-06-05 13:45;0
2016-06-05 14:00;0,15
2016-06-05 14:15;1,3
2016-06-05 14:30;0,25
2016-06-05 14:45;1,65
2016-06-05 15:00;0,3
2016-06-05 15:15;0,3
2016-06-05 15:30;0,9
2016-06-05 15:45;0,85
2016-06-05 16:00;2,15
2016-06-05 16:15;3,85
2016-06-05 16:30;2,35
2016-06-05 16:45;4,1
2016-06-05 17:00;3,8
2016-06-05 17:15;3,25
2016-06-05 17:30;2,9
2016-06-05 17:45;2,5
2016-06-05 18:00;3,4
2016-06-05 18:15;8,7
2016-06-05 18:30;5,8
2016-06-05 18:45;4,75
2016-06-05 19:00;3,25
2016-06-05 19:15;0,7
2016-06-05 19:30;1,25
2016-06-05 19:45;0,8
2016-06-05 20:00;1,2
2016-06-05 20:15;0,55
2016-06-05 20:30;2,2
2016-06-05 20:45;0,85
2016-06-05 21:00;0,1
2016-06-05 21:15;0
2016-06-05 21:30;0,05
2016-06-05 21:45;0
2016-06-05 22:00;0
2016-06-05 22:15;0,05
2016-06-05 22:30;0
2016-06-05 22:45;0,1
2016-06-05 23:00;0,35
2016-06-05 23:15;0
2016-06-05 23:30;1,1
2016-06-05 23:45;0,75

